Temp
-20 -20 -20 -20 -21 -21 -21 -21 -21 -21 -21 -21 -22 -22 -22 -22 -22 -22 -22 -22 -22 -22 -22 -22 -22 -22 -22 -22 -23 -23 -23 -23 -23 -23 -23 -22 -22 -22 -22 -22 -22 -22
-21 -21 -21 -21 -21 -21 -21 -21 -22 -22 -22 -22 -22 -22 -22 -23 -23 -23 -23 -23 -23 -23 -23 -23 -23 -23 -23 -23 -23 -23 -23 -23 -23 -23 -23 -23 -23 -23 -23 -23 -23 -23
-21 -21 -21 -21 -22 -22 -22 -22 -22 -22 -22 -23 -23 -23 -23 -23 -23 -23 -23 -23 -23 -23 -23 -23 -23 -23 -23 -23 -23 -23 -23 -23 -23 -23 -23 -23 -23 -23 -23 -23 -23 -23
-22 -22 -22 -22 -22 -22 -22 -23 -23 -23 -23 -23 -23 -23 -23 -23 -23 -23 -23 -23 -23 -23 -23 -23 -23 -23 -23 -23 -23 -23 -23 -23 -24 -24 -24 -24 -24 -24 -24 -24 -24 -24
-22 -22 -22 -22 -23 -23 -23 -23 -23 -23 -23 -23 -23 -24 -24 -24 -24 -24 -24 -24 -24 -24 -24 -24 -24 -24 -24 -24 -24 -24 -24 -24 -24 -24 -24 -24 -24 -24 -24 -24 -24 -24
-22 -23 -23 -23 -23 -23 -23 -23 -23 -23 -24 -24 -24 -24 -24 -24 -24 -24 -24 -24 -24 -24 -24 -24 -24 -24 -24 -24 -24 -24 -24 -24 -25 -25 -25 -25 -25 -25 -25 -25 -24 -24
-23 -23 -23 -23 -23 -23 -23 -24 -24 -24 -24 -24 -24 -24 -24 -24 -24 -24 -24 -24 -24 -24 -24 -24 -24 -24 -24 -24 -25 -25 -25 -25 -25 -25 -25 -25 -25 -25 -25 -25 -25 -25
-23 -23 -23 -24 -24 -24 -24 -24 -24 -24 -24 -24 -24 -24 -24 -24 -24 -24 -24 -24 -24 -24 -25 -25 -25 -25 -25 -25 -25 -25 -25 -25 -25 -25 -25 -25 -25 -25 -25 -25 -26 -26
-24 -24 -24 -24 -24 -24 -24 -24 -25 -25 -25 -25 -25 -25 -25 -24 -24 -24 -24 -24 -25 -25 -25 -25 -25 -25 -25 -25 -25 -25 -25 -25 -25 -26 -26 -26 -26 -26 -26 -26 -27 -27
-24 -24 -24 -24 -24 -25 -25 -25 -25 -25 -25 -25 -25 -25 -25 -25 -25 -25 -25 -25 -25 -25 -25 -25 -25 -25 -25 -25 -25 -25 -25 -26 -26 -26 -26 -26 -27 -27 -27 -28 -29 -29
-24 -24 -25 -25 -25 -25 -25 -25 -25 -25 -25 -25 -25 -25 -25 -25 -25 -25 -25 -25 -26 -26 -26 -26 -26 -26 -26 -25 -25 -26 -26 -26 -26 -26 -27 -27 -28 -28 -29 -29 -30 -31
-25 -25 -25 -25 -25 -25 -25 -25 -25 -25 -25 -25 -25 -25 -25 -25 -26 -26 -26 -26 -26 -26 -26 -26 -26 -26 -26 -26 -26 -26 -26 -26 -27 -27 -27 -28 -29 -30 -31 -31 -32 -33
-25 -25 -25 -25 -25 -25 -26 -26 -26 -26 -26 -26 -26 -26 -26 -26 -26 -26 -26 -26 -26 -26 -26 -26 -26 -26 -26 -26 -26 -27 -27 -27 -27 -28 -28 -29 -30 -31 -32 -33 -33 -33
-25 -25 -25 -25 -26 -26 -26 -26 -26 -26 -26 -26 -26 -26 -26 -26 -26 -26 -26 -26 -26 -26 -26 -26 -27 -27 -27 -27 -27 -27 -27 -27 -28 -29 -30 -31 -32 -33 -33 -33 -33 -33
-26 -26 -26 -26 -26 -26 -26 -26 -26 -26 -26 -26 -27 -27 -27 -27 -27 -27 -27 -27 -27 -27 -27 -27 -27 -27 -27 -27 -27 -27 -28 -28 -29 -30 -31 -32 -33 -33 -33 -33 -33 -33
-26 -26 -26 -26 -26 -26 -26 -26 -26 -26 -27 -27 -27 -27 -27 -27 -27 -27 -27 -27 -27 -27 -27 -27 -28 -28 -27 -28 -28 -28 -29 -29 -30 -32 -33 -33 -34 -33 -33 -33 -33 -33
-26 -26 -26 -26 -26 -26 -26 -26 -27 -27 -27 -27 -27 -27 -27 -27 -27 -27 -27 -27 -27 -28 -28 -28 -28 -28 -28 -28 -28 -29 -30 -31 -31 -33 -33 -33 -33 -33 -33 -33 -33 -33
-26 -26 -27 -27 -27 -27 -27 -27 -27 -27 -27 -27 -27 -27 -27 -27 -27 -27 -27 -28 -28 -28 -28 -28 -28 -28 -28 -29 -30 -30 -31 -32 -32 -33 -33 -33 -33 -33 -33 -33 -33 -33
-26 -27 -27 -27 -27 -27 -27 -27 -27 -27 -27 -27 -27 -27 -27 -28 -28 -28 -28 -28 -29 -29 -29 -29 -29 -29 -29 -30 -31 -32 -32 -32 -33 -33 -33 -33 -33 -33 -33 -33 -33 -33
-27 -27 -27 -27 -27 -27 -27 -27 -28 -28 -28 -27 -27 -28 -28 -28 -28 -28 -29 -29 -29 -29 -29 -29 -30 -30 -30 -31 -32 -32 -33 -33 -33 -33 -33 -33 -33 -33 -33 -33 -33 -33
-27 -27 -27 -27 -27 -27 -28 -28 -28 -28 -28 -28 -28 -28 -28 -28 -29 -29 -29 -29 -29 -29 -30 -30 -31 -31 -32 -32 -33 -33 -33 -33 -33 -33 -33 -33 -33 -33 -33 -33 -33 -33
-27 -27 -27 -27 -28 -28 -28 -28 -28 -28 -28 -28 -28 -28 -29 -29 -29 -29 -29 -29 -29 -30 -30 -31 -32 -32 -33 -33 -33 -33 -33 -33 -33 -33 -33 -33 -33 -33 -34 -34 -34 -33
-27 -27 -28 -28 -28 -28 -28 -28 -28 -28 -28 -28 -29 -29 -29 -29 -29 -30 -30 -30 -30 -30 -31 -32 -33 -34 -34 -34 -33 -33 -33 -33 -33 -33 -33 -33 -33 -34 -34 -34 -34 -34
-28 -28 -28 -28 -28 -28 -28 -28 -28 -28 -29 -29 -29 -29 -30 -30 -30 -30 -30 -30 -31 -31 -32 -33 -34 -34 -34 -34 -33 -33 -33 -33 -33 -33 -33 -33 -33 -34 -34 -34 -34 -34
-28 -28 -28 -28 -28 -28 -29 -29 -29 -29 -29 -29 -29 -30 -30 -30 -30 -30 -30 -31 -32 -33 -33 -34 -34 -34 -34 -34 -33 -33 -33 -33 -33 -33 -33 -33 -33 -34 -34 -34 -34 -34
-28 -28 -28 -28 -29 -29 -29 -29 -29 -29 -29 -30 -30 -30 -30 -30 -30 -30 -31 -32 -33 -34 -34 -34 -34 -34 -34 -34 -34 -33 -33 -33 -33 -33 -33 -33 -33 -34 -34 -34 -34 -34
Height
5633 5631 5629 5627 5624 5622 5620 5617 5615 5612 5610 5608 5606 5605 5602 5600 5598 5595 5593 5591 5589 5586 5584 5581 5578 5575 5572 5569 5566 5563 5559 5556 5552 5549 5546 5542 5539 5535 5532 5528 5524 5521
5625 5623 5621 5619 5617 5614 5612 5609 5607 5605 5603 5601 5599 5597 5595 5593 5590 5588 5586 5583 5581 5579 5576 5574 5571 5568 5565 5562 5558 5555 5551 5548 5544 5540 5537 5533 5530 5525 5521 5518 5513 5510
5618 5616 5614 5612 5609 5606 5604 5602 5600 5598 5596 5593 5591 5589 5587 5585 5583 5581 5579 5576 5574 5571 5569 5566 5563 5560 5557 5554 5550 5547 5543 5539 5535 5531 5526 5522 5519 5515 5511 5507 5502 5498
5610 5608 5606 5604 5601 5599 5597 5595 5593 5591 5588 5586 5584 5582 5579 5577 5575 5573 5571 5569 5566 5564 5561 5558 5555 5552 5549 5546 5542 5538 5534 5529 5525 5521 5516 5511 5507 5504 5499 5495 5490 5485
5603 5600 5598 5596 5594 5592 5590 5587 5585 5583 5581 5579 5577 5574 5572 5570 5568 5565 5563 5561 5559 5556 5553 5550 5547 5544 5541 5537 5533 5529 5525 5520 5515 5511 5506 5500 5495 5491 5488 5484 5478 5472
5595 5593 5591 5589 5587 5584 5582 5580 5578 5576 5574 5572 5569 5567 5565 5563 5561 5558 5556 5554 5551 5548 5545 5541 5538 5535 5532 5528 5524 5520 5515 5510 5505 5500 5495 5489 5483 5479 5475 5471 5466 5460
5588 5586 5584 5582 5580 5577 5575 5573 5571 5569 5567 5565 5562 5560 5558 5556 5553 5551 5549 5546 5543 5540 5536 5533 5530 5527 5523 5520 5515 5511 5506 5500 5495 5490 5484 5478 5472 5466 5462 5458 5453 5447
5581 5579 5577 5575 5573 5571 5569 5566 5564 5562 5560 5558 5555 5553 5551 5549 5546 5544 5541 5538 5535 5531 5527 5524 5521 5518 5515 5511 5507 5502 5496 5490 5485 5479 5473 5467 5460 5454 5449 5445 5441 5435
5573 5571 5570 5568 5566 5564 5562 5560 5558 5555 5553 5551 5548 5546 5544 5541 5539 5536 5533 5530 5527 5523 5519 5515 5512 5509 5506 5503 5499 5493 5487 5480 5474 5468 5462 5456 5449 5443 5438 5433 5429 5424
5566 5564 5563 5561 5559 5557 5555 5553 5551 5548 5546 5544 5541 5538 5536 5533 5531 5528 5525 5522 5518 5514 5510 5506 5503 5500 5496 5493 5489 5484 5478 5471 5464 5458 5451 5445 5439 5433 5428 5423 5419 5414
5559 5558 5556 5555 5553 5551 5548 5546 5544 5541 5539 5536 5534 5531 5528 5525 5522 5520 5516 5513 5509 5505 5502 5498 5494 5490 5487 5483 5480 5475 5469 5462 5455 5448 5441 5434 5428 5422 5418 5414 5410 5407
5552 5551 5549 5548 5546 5544 5542 5539 5537 5534 5531 5529 5526 5523 5520 5517 5514 5511 5508 5504 5500 5496 5493 5489 5484 5480 5477 5474 5469 5464 5459 5453 5446 5439 5432 5425 5419 5414 5409 5406 5404 5401
5546 5544 5543 5541 5539 5537 5534 5532 5529 5527 5524 5521 5518 5515 5512 5510 5507 5503 5500 5496 5491 5487 5483 5479 5475 5470 5467 5464 5460 5454 5449 5443 5436 5429 5423 5416 5411 5407 5403 5400 5398 5396
5539 5537 5536 5534 5532 5530 5527 5525 5522 5519 5516 5513 5510 5508 5505 5502 5499 5495 5491 5487 5483 5478 5474 5470 5465 5460 5457 5454 5450 5444 5439 5434 5427 5420 5414 5409 5404 5401 5398 5395 5394 5391
5532 5531 5529 5527 5525 5523 5521 5518 5515 5512 5509 5506 5503 5500 5497 5494 5490 5486 5483 5479 5474 5469 5464 5460 5455 5450 5447 5444 5439 5435 5429 5424 5419 5412 5407 5403 5400 5397 5394 5391 5389 5387
5525 5524 5522 5521 5518 5516 5513 5510 5507 5504 5501 5498 5495 5492 5489 5485 5482 5478 5474 5470 5465 5460 5455 5450 5445 5441 5437 5433 5428 5424 5420 5416 5411 5405 5401 5398 5396 5393 5390 5387 5384 5382
5519 5517 5515 5514 5511 5509 5506 5503 5500 5497 5494 5490 5487 5484 5480 5477 5473 5469 5464 5460 5456 5451 5445 5440 5435 5431 5427 5423 5418 5414 5411 5408 5405 5401 5397 5394 5391 5389 5386 5383 5381 5378
5512 5510 5508 5506 5504 5501 5498 5495 5492 5489 5486 5483 5479 5476 5472 5468 5464 5459 5455 5451 5446 5441 5436 5431 5425 5421 5417 5413 5409 5405 5403 5401 5399 5396 5393 5390 5387 5385 5382 5380 5377 5374
5506 5504 5502 5499 5497 5494 5491 5488 5485 5482 5479 5475 5472 5468 5464 5460 5455 5450 5446 5441 5437 5432 5426 5420 5415 5411 5408 5404 5401 5398 5396 5395 5393 5390 5388 5386 5383 5380 5378 5375 5372 5370
5500 5497 5495 5492 5490 5487 5484 5481 5478 5474 5471 5468 5464 5460 5456 5452 5447 5442 5437 5432 5427 5423 5416 5410 5405 5402 5399 5396 5394 5392 5390 5389 5387 5385 5383 5380 5377 5375 5372 5369 5366 5364
5493 5491 5488 5485 5482 5480 5477 5474 5470 5467 5463 5460 5457 5453 5448 5444 5438 5433 5428 5423 5417 5413 5407 5400 5395 5393 5392 5390 5388 5387 5386 5384 5382 5380 5378 5375 5372 5369 5366 5364 5361 5358
5486 5484 5481 5478 5475 5473 5470 5466 5463 5459 5455 5453 5449 5444 5439 5435 5430 5425 5419 5414 5408 5403 5399 5392 5387 5386 5386 5384 5382 5382 5381 5379 5377 5375 5373 5370 5367 5364 5361 5358 5356 5353
5479 5476 5474 5471 5468 5465 5462 5458 5455 5451 5448 5444 5441 5436 5431 5426 5421 5416 5410 5405 5399 5394 5391 5386 5381 5379 5380 5379 5377 5377 5376 5374 5372 5370 5368 5365 5363 5360 5357 5354 5351 5348
5472 5469 5467 5464 5461 5458 5454 5451 5447 5443 5440 5436 5432 5427 5422 5417 5412 5407 5400 5395 5391 5386 5383 5381 5377 5374 5375 5374 5372 5371 5371 5369 5367 5365 5363 5361 5359 5356 5353 5350 5347 5344
5465 5462 5459 5457 5454 5450 5447 5443 5439 5435 5431 5427 5423 5419 5414 5408 5403 5399 5392 5386 5382 5379 5376 5375 5374 5370 5369 5369 5368 5366 5365 5364 5362 5360 5359 5357 5354 5352 5349 5346 5342 5339
5458 5455 5453 5450 5446 5443 5439 5434 5431 5427 5422 5418 5414 5409 5405 5400 5395 5390 5385 5379 5375 5373 5371 5370 5369 5367 5365 5364 5363 5361 5360 5359 5357 5355 5354 5352 5350 5347 5344 5341 5337 5334
Wind_Speed
63 63 62 62 62 62 63 63 64 64 64 65 65 65 65 66 66 67 67 67 67 68 68 69 69 70 71 72 73 75 76 78 79 81 82 84 85 86 88 89 90 91
63 62 62 62 62 63 63 64 64 64 64 64 65 65 65 66 66 66 66 67 67 67 68 69 69 70 71 73 74 76 77 79 80 82 83 85 86 88 89 90 91 92
62 62 62 62 62 63 63 63 64 64 64 64 65 65 65 65 65 65 66 66 67 68 68 69 70 71 72 74 75 77 79 80 82 83 85 86 87 89 90 91 92 93
62 62 62 62 62 63 63 63 63 64 64 64 65 65 65 65 65 65 65 66 67 68 68 69 71 72 74 75 77 78 80 81 83 84 86 88 89 90 91 92 93 95
61 61 62 62 62 62 63 63 64 64 64 64 64 64 64 64 64 65 65 66 67 68 69 71 72 74 75 76 78 79 81 82 84 86 87 89 91 92 92 93 95 96
61 61 61 62 62 62 63 63 64 64 64 63 63 63 63 64 64 65 65 67 68 69 71 72 74 75 76 77 79 80 82 84 85 87 89 90 92 93 94 95 96 97
60 61 61 62 62 62 63 63 63 62 62 62 62 62 63 63 64 65 66 68 69 71 72 73 74 75 77 78 79 81 83 85 87 89 90 92 93 95 96 97 97 97
60 61 61 61 61 62 62 61 61 60 60 61 61 62 62 63 65 66 68 69 70 71 73 74 75 76 77 79 80 82 85 87 88 90 91 93 95 96 96 96 94 92
60 60 60 60 60 60 60 59 59 59 59 60 61 61 63 64 66 67 69 70 71 72 73 75 76 77 79 80 82 84 86 87 89 90 92 94 95 95 93 91 87 83
58 59 59 59 58 58 57 57 57 58 58 59 60 62 64 66 67 68 69 70 71 72 74 76 77 79 80 82 83 85 86 88 90 91 93 93 92 90 86 82 76 70
57 57 57 56 56 56 55 56 56 57 58 60 62 64 65 66 67 68 69 70 72 74 75 77 79 81 82 83 84 85 87 88 90 91 91 89 85 81 76 70 63 57
55 54 54 54 53 54 54 55 56 58 60 61 63 64 65 66 67 68 70 71 73 75 77 79 81 82 83 84 85 86 88 89 90 89 86 81 75 69 63 56 51 47
52 52 52 52 52 53 54 56 57 59 61 62 63 64 65 66 68 69 71 73 75 77 79 80 82 83 84 85 86 87 89 89 88 84 77 70 62 56 50 46 45 44
50 51 51 52 53 54 55 57 58 60 61 63 64 64 66 67 69 70 72 74 77 78 80 81 83 84 85 86 87 88 88 86 80 73 65 56 49 45 43 43 43 44
50 51 52 52 54 55 56 58 59 61 62 63 64 65 67 69 70 72 74 76 78 79 81 82 83 85 86 87 88 87 84 78 70 60 51 44 40 39 40 42 43 44
50 52 52 53 54 55 57 58 60 61 62 63 65 66 68 70 71 74 76 77 79 80 81 82 84 86 87 88 87 84 77 68 57 47 40 37 37 38 40 42 43 44
52 53 53 54 55 56 58 59 60 61 62 64 66 68 70 72 73 75 77 78 79 80 81 83 85 87 88 86 83 76 66 55 43 36 34 35 37 39 40 41 43 44
52 53 53 54 56 57 58 59 60 62 63 65 68 70 71 73 75 76 78 79 79 80 82 84 86 87 85 81 74 64 53 43 34 31 33 35 37 38 40 41 42 43
52 53 54 55 57 58 59 60 61 62 64 67 69 71 72 74 76 77 78 79 80 81 84 85 85 83 79 71 61 50 41 34 31 32 33 35 37 38 40 41 42 43
52 53 55 56 57 58 59 60 62 64 66 68 70 72 73 75 76 77 78 79 81 83 84 84 81 76 69 58 48 38 33 30 30 32 34 35 37 39 40 41 42 42
53 54 55 57 57 58 59 61 63 65 68 70 71 72 74 75 76 77 79 81 83 84 83 78 72 65 56 45 37 31 29 30 31 33 34 36 37 39 39 40 41 42
54 55 56 57 58 59 60 62 64 67 69 71 72 73 74 75 76 78 80 82 84 83 77 69 61 53 43 35 31 30 29 30 31 33 35 36 37 37 38 39 41 42
55 56 57 57 58 60 62 64 66 68 70 71 72 73 74 75 77 79 82 83 82 77 68 57 48 41 34 30 30 30 29 30 32 33 34 35 35 35 37 39 40 41
56 56 57 58 60 62 63 65 67 69 70 72 72 73 75 76 78 81 83 81 76 67 57 45 38 34 31 30 31 31 30 30 32 33 33 33 33 35 36 38 38 40
56 57 58 60 61 63 65 67 68 70 71 72 73 74 76 78 80 82 80 74 65 54 44 36 31 31 31 31 31 32 31 32 32 32 32 32 33 34 35 36 38 41
57 58 60 61 63 64 66 68 69 70 71 73 74 76 77 79 81 80 73 63 52 42 35 30 29 30 31 31 31 32 32 32 31 31 31 31 32 32 34 37 40 42
Wind_Direction
284 285 285 285 285 286 286 286 286 286 287 288 289 289 290 291 291 292 292 293 293 294 295 295 296 296 297 297 298 298 299 299 299 299 299 299 300 300 300 300 301 301
283 284 284 285 285 285 285 285 286 287 288 288 289 290 290 291 291 292 292 293 294 294 295 296 296 297 297 298 298 298 299 299 299 299 300 300 300 301 301 301 302 302
283 284 284 284 285 285 285 286 287 288 288 289 290 290 291 291 292 292 293 294 294 295 295 296 297 297 298 298 299 299 299 300 300 300 301 301 301 302 302 302 303 303
284 284 284 284 285 285 286 287 288 288 289 289 290 290 291 292 292 293 293 294 295 295 296 297 298 298 298 299 299 300 300 301 301 302 302 303 303 303 303 304 304 304
284 284 284 285 285 286 287 288 288 288 289 289 290 291 291 292 293 293 294 295 296 296 297 298 298 299 299 299 300 301 302 302 303 303 304 304 304 304 305 305 305 306
284 284 285 286 286 287 287 288 288 289 289 290 290 291 292 292 293 294 295 296 297 297 298 298 298 299 300 301 302 302 303 304 304 304 304 305 305 305 306 306 307 307
285 285 286 286 286 287 288 288 288 289 289 290 291 291 292 293 294 295 296 296 297 298 298 299 299 300 301 302 303 304 304 305 305 305 305 306 306 307 307 307 308 307
286 286 286 286 287 287 288 288 288 289 290 290 291 292 292 293 294 295 296 297 298 299 300 300 301 302 302 303 304 305 305 305 306 306 307 307 308 308 308 308 308 307
287 287 287 287 287 288 288 288 289 289 290 291 291 292 293 294 295 296 297 298 299 300 301 301 302 303 303 304 305 305 306 306 307 308 308 308 309 308 308 308 307 306
286 286 287 287 288 288 288 289 289 290 291 292 293 294 295 295 296 298 299 300 301 301 302 302 303 304 304 305 305 306 307 307 308 309 309 309 309 308 307 306 305 303
287 287 287 288 288 288 289 289 290 291 292 293 294 295 296 297 298 299 300 301 302 302 303 304 304 305 305 305 306 307 308 308 309 310 310 309 308 307 305 304 302 301
288 288 288 288 289 289 290 290 291 292 293 294 295 297 298 299 300 301 301 302 303 303 304 304 305 305 306 306 307 308 309 309 310 310 309 308 306 304 302 300 300 300
288 288 289 289 289 290 290 291 292 294 295 296 297 298 299 300 301 301 302 303 304 304 305 305 305 306 306 307 308 309 310 310 310 310 308 305 302 300 299 298 299 300
289 289 289 289 290 291 292 293 294 295 296 297 298 299 300 301 302 303 304 304 304 305 305 306 306 307 307 308 309 310 311 311 310 308 305 301 298 297 297 298 299 301
289 289 289 290 291 293 294 295 295 296 297 298 299 300 301 302 303 304 305 305 305 306 306 307 307 308 308 309 310 311 311 311 309 305 300 295 293 295 297 298 300 302
289 290 291 292 293 294 295 296 296 297 298 300 301 301 302 303 305 305 305 305 306 307 307 308 308 309 310 311 311 311 311 309 306 300 294 292 293 296 297 299 301 303
291 292 293 294 295 296 296 297 297 299 300 301 302 303 304 305 305 305 306 306 307 308 308 309 309 310 311 312 311 310 309 307 301 292 289 292 295 296 298 300 301 302
292 293 294 295 296 296 297 297 299 300 301 302 303 304 305 306 306 306 307 307 308 308 309 310 311 311 312 311 310 308 306 302 294 287 288 291 293 295 297 298 299 300
292 294 295 295 296 296 297 299 300 301 302 303 303 305 306 306 307 307 308 308 309 310 311 311 312 311 311 310 308 305 300 295 290 289 291 293 294 296 297 298 299 301
293 294 295 296 296 297 298 300 301 302 303 303 304 306 307 307 308 308 308 309 310 311 312 312 311 310 309 307 304 299 294 292 292 293 295 296 298 299 299 300 302 304
294 295 296 296 297 298 299 301 302 302 303 304 305 307 307 308 308 309 309 310 312 313 313 311 309 307 306 302 298 294 292 293 294 296 298 300 301 301 303 304 306 307
295 296 296 297 298 299 301 302 302 303 304 305 307 308 308 308 309 309 311 312 313 313 311 308 305 303 301 297 294 293 293 295 297 298 300 302 302 304 306 306 307 308
295 295 296 297 299 300 301 302 302 303 305 307 308 309 309 309 310 311 312 313 313 311 308 304 300 298 296 294 294 295 296 297 299 300 301 302 304 306 307 306 307 309
295 296 297 298 300 301 302 302 303 305 307 308 309 309 310 310 311 313 313 313 311 307 304 299 295 294 294 295 296 298 299 300 300 301 302 304 305 306 307 307 309 311
296 297 298 299 300 301 302 303 304 306 308 309 309 310 310 311 312 314 313 310 307 302 298 294 292 293 296 297 299 301 301 301 301 302 303 305 307 307 308 310 312 313
296 297 298 299 300 302 303 304 306 308 309 309 310 310 311 312 313 313 311 306 300 296 292 290 291 293 297 300 301 302 302 302 302 304 306 307 308 310 311 312 313 313